Left ArrowRight Arrow

-33.86785, 151.20732

Hourly Observations for March 1, 2022

Temp ( °F °C ) Dew Point ( °F °C ) Humidity (%) Winds ( mph kmh ) Pressure ( in mb ) Visibility ( mi km ) Precip ( " mm )
12:00 am 00:00 Mostly Cloudy with Showers Nearby 70 21 68 20 94 94 SW 7 11 29.91 1013 30 48 N/A
12:30 am 00:30 Mostly Cloudy with Showers 70 21 68 20 94 94 WSW 6 9 29.91 1013 4 6 N/A
12:41 am 00:41 Mostly Cloudy with Showers 70 21 68 20 94 94 ENE 17 28 29.91 1013 2 4 N/A
1:00 am 01:00 Mostly Cloudy with Showers Nearby 70 21 68 20 94 94 NE 13 20 29.91 1013 30 48 N/A
1:30 am 01:30 Mostly Cloudy with Showers Nearby 70 21 66 19 88 88 NE 6 9 29.88 1012 30 48 N/A
2:00 am 02:00 Mostly Cloudy with Showers Nearby 70 21 68 20 94 94 E 9 15 29.88 1012 30 48 N/A
2:30 am 02:30 Partly Cloudy 72 22 66 19 83 83 E 16 26 29.85 1011 30 48 N/A
3:00 am 03:00 Partly Cloudy 72 22 66 19 83 83 E 15 24 29.85 1011 30 48 N/A
3:30 am 03:30 Partly Cloudy 72 22 66 19 83 83 E 15 24 29.85 1011 30 48 N/A
4:00 am 04:00 Partly Cloudy 72 22 66 19 83 83 E 14 22 29.85 1011 30 48 N/A
4:17 am 04:17 Mostly Cloudy 72 22 66 19 83 83 E 17 28 29.85 1011 30 48 N/A
4:30 am 04:30 Mostly Cloudy with Light Showers 70 21 66 19 88 88 ENE 17 28 29.85 1011 5 8 N/A
5:00 am 05:00 Mostly Cloudy with Light Showers 70 21 68 20 94 94 E 10 17 29.85 1011 30 48 N/A
5:30 am 05:30 Mostly Cloudy with Light Showers 72 22 68 20 88 88 E 14 22 29.85 1011 30 48 N/A
6:00 am 06:00 Mostly Cloudy with Light Showers 70 21 68 20 94 94 E 13 20 29.85 1011 30 48 N/A
6:30 am 06:30 Mostly Cloudy with Light Showers 70 21 68 20 94 94 ESE 15 24 29.85 1011 30 48 N/A
7:00 am 07:00 Mostly Cloudy with Drizzle 70 21 66 19 88 88 E 18 30 29.85 1011 6 9 N/A
7:30 am 07:30 Mostly Cloudy with Drizzle 72 22 66 19 83 83 E 17 28 29.88 1012 30 48 N/A
7:55 am 07:55 Mostly Cloudy with Showers 70 21 66 19 88 88 ESE 16 26 29.88 1012 4 6 N/A
8:00 am 08:00 Mostly Cloudy with Heavy Showers 68 20 64 18 88 88 ENE 18 30 29.88 1012 4 6 N/A
8:22 am 08:22 Mostly Cloudy with Showers 68 20 66 19 94 94 E 12 19 29.88 1012 6 9 N/A
8:30 am 08:30 Mostly Cloudy with Showers 68 20 66 19 94 94 ENE 9 15 29.88 1012 6 9 N/A
9:00 am 09:00 Mostly Cloudy with Showers Nearby 72 22 70 21 94 94 E 15 24 29.88 1012 30 48 N/A
9:30 am 09:30 Mostly Cloudy with Light Showers 72 22 68 20 88 88 ESE 17 28 29.88 1012 6 9 N/A
9:55 am 09:55 Mostly Cloudy with Light Showers 72 22 68 20 88 88 ESE 17 28 29.91 1013 6 9 N/A
10:00 am 10:00 Mostly Cloudy with Showers 70 21 66 19 88 88 E 22 35 29.91 1013 3 5 N/A
10:20 am 10:20 Mostly Cloudy with Light Showers 70 21 68 20 94 94 E 14 22 29.91 1013 5 8 N/A
10:30 am 10:30 Mostly Cloudy with Light Showers 72 22 68 20 88 88 E 14 22 29.91 1013 30 48 N/A
11:00 am 11:00 Mostly Cloudy with Drizzle 72 22 68 20 88 88 E 18 30 29.91 1013 30 48 N/A
11:15 am 11:15 Mostly Cloudy with Light Showers 72 22 66 19 83 83 E 18 30 29.91 1013 30 48 N/A
11:30 am 11:30 Mostly Cloudy with Drizzle 72 22 68 20 88 88 E 18 30 29.91 1013 30 48 N/A
11:45 am 11:45 Mostly Cloudy with Drizzle 72 22 68 20 88 88 ESE 18 30 29.91 1013 30 48 N/A
12:00 pm 12:00 Mostly Cloudy with Drizzle 72 22 68 20 88 88 ESE 17 28 29.88 1012 30 48 N/A
12:14 pm 12:14 Mostly Cloudy with Drizzle 73 23 70 21 89 89 E 17 28 29.88 1012 30 48 N/A
12:30 pm 12:30 Mostly Cloudy with Drizzle 72 22 68 20 88 88 E 21 33 29.88 1012 30 48 N/A
12:37 pm 12:37 Mostly Cloudy with Drizzle 72 22 68 20 88 88 E 21 33 29.88 1012 30 48 N/A
12:54 pm 12:54 Mostly Cloudy with Drizzle 73 23 68 20 83 83 E 24 39 29.88 1012 30 48 N/A
1:00 pm 13:00 Mostly Cloudy 73 23 68 20 83 83 E 24 39 29.88 1012 30 48 N/A
1:30 pm 13:30 Windy with Rain Showers Likely 73 23 70 21 89 89 E 21 33 29.88 1012 5 8 N/A
2:00 pm 14:00 Mostly Cloudy with Showers 70 21 68 20 94 94 E 20 31 29.88 1012 3 5 N/A
2:22 pm 14:22 Mostly Cloudy with Drizzle 72 22 70 21 94 94 ESE 13 20 29.88 1012 30 48 N/A
2:30 pm 14:30 Mostly Cloudy with Light Showers 72 22 70 21 94 94 ESE 16 26 29.85 1011 30 48 N/A
2:35 pm 14:35 Mostly Cloudy 73 23 70 21 89 89 ESE 17 28 29.85 1011 30 48 N/A
2:41 pm 14:41 Mostly Cloudy with Showers 72 22 66 19 83 83 E 22 35 29.88 1012 4 6 N/A
2:53 pm 14:53 Mostly Cloudy with Showers 70 21 68 20 94 94 ESE 17 28 29.85 1011 2 4 N/A
3:00 pm 15:00 Mostly Cloudy with Showers 70 21 66 19 88 88 E 18 30 29.85 1011 2 4 N/A
3:11 pm 15:11 Windy with Rain Showers Likely 70 21 68 20 94 94 E 20 31 29.85 1011 6 9 N/A
3:30 pm 15:30 Windy with Rain Showers Likely 72 22 68 20 88 88 E 20 31 29.85 1011 30 48 N/A
4:00 pm 16:00 Windy with Rain Showers Likely 73 23 68 20 83 83 E 21 33 29.85 1011 30 48 N/A
4:30 pm 16:30 Mostly Cloudy 73 23 66 19 78 78 E 22 35 29.85 1011 30 48 N/A
5:00 pm 17:00 Mostly Cloudy 73 23 64 18 74 74 E 21 33 29.85 1011 30 48 N/A
5:30 pm 17:30 Mostly Cloudy with Light Showers 73 23 66 19 78 78 ESE 18 30 29.85 1011 30 48 N/A
5:35 pm 17:35 Mostly Cloudy with Showers 70 21 64 18 83 83 ESE 20 31 29.85 1011 4 7 N/A
6:00 pm 18:00 Windy with Rain Showers Likely 72 22 64 18 78 78 E 20 31 29.85 1011 30 48 N/A
6:30 pm 18:30 Mostly Cloudy with Light Showers 72 22 66 19 83 83 E 18 30 29.85 1011 30 48 N/A
7:00 pm 19:00 Mostly Cloudy with Showers 72 22 66 19 83 83 E 17 28 29.85 1011 30 48 N/A
7:30 pm 19:30 Windy with Rain Showers Likely 72 22 66 19 83 83 E 22 35 29.85 1011 6 9 N/A
8:00 pm 20:00 Mostly Cloudy with Showers Nearby 72 22 64 18 78 78 E 21 33 29.85 1011 30 48 N/A
8:30 pm 20:30 Mostly Cloudy with Showers Nearby 72 22 64 18 78 78 E 16 26 29.88 1012 30 48 N/A
9:00 pm 21:00 Mostly Cloudy with Light Showers 72 22 64 18 78 78 E 15 24 29.88 1012 30 48 N/A
9:30 pm 21:30 Windy with Rain Showers Likely 72 22 64 18 78 78 E 20 31 29.88 1012 30 48 N/A
10:00 pm 22:00 Mostly Cloudy with Showers 70 21 64 18 83 83 E 18 30 29.88 1012 6 9 N/A
10:30 pm 22:30 Mostly Cloudy with Light Showers 70 21 68 20 94 94 ESE 12 19 29.88 1012 30 48 N/A
11:00 pm 23:00 Mostly Cloudy with Light Showers 70 21 66 19 88 88 ESE 17 28 29.88 1012 30 48 N/A
11:30 pm 23:30 Mostly Cloudy with Light Showers 70 21 66 19 88 88 E 16 26 29.88 1012 30 48 N/A

Powered by Vaisala Xweather